Year,Month,Day,Hour,Minute,Value (Times are PST for temperature in C)
2021,08,24,00,00,13.10
2021,08,24,00,01,13.00
2021,08,24,00,02,13.00
2021,08,24,00,03,13.00
2021,08,24,00,04,13.00
2021,08,24,00,05,13.00
2021,08,24,00,06,13.00
2021,08,24,00,07,12.90
2021,08,24,00,08,12.90
2021,08,24,00,09,12.90
2021,08,24,00,10,12.90
2021,08,24,00,11,12.90
2021,08,24,00,12,12.90
2021,08,24,00,13,12.90
2021,08,24,00,14,12.80
2021,08,24,00,15,12.80
2021,08,24,00,16,12.80
2021,08,24,00,17,12.80
2021,08,24,00,18,12.80
2021,08,24,00,19,12.80
2021,08,24,00,20,12.70
2021,08,24,00,21,12.70
2021,08,24,00,22,12.70
2021,08,24,00,23,12.70
2021,08,24,00,24,12.70
2021,08,24,00,25,12.70
2021,08,24,00,26,12.70
2021,08,24,00,27,12.70
2021,08,24,00,28,12.70
2021,08,24,00,29,12.60
2021,08,24,00,30,12.60
2021,08,24,00,31,12.60
2021,08,24,00,32,12.60
2021,08,24,00,33,12.60
2021,08,24,00,34,12.60
2021,08,24,00,35,12.50
2021,08,24,00,36,12.50
2021,08,24,00,37,12.50
2021,08,24,00,38,12.50
2021,08,24,00,39,12.50
2021,08,24,00,40,12.60
2021,08,24,00,41,12.60
2021,08,24,00,42,12.60
2021,08,24,00,43,12.60
2021,08,24,00,44,12.60
2021,08,24,00,45,12.60
2021,08,24,00,46,12.60
2021,08,24,00,47,12.60
2021,08,24,00,48,12.70
2021,08,24,00,49,12.70
2021,08,24,00,50,12.70
2021,08,24,00,51,12.70
2021,08,24,00,52,12.70
2021,08,24,00,53,12.70
2021,08,24,00,54,12.70
2021,08,24,00,55,12.70
2021,08,24,00,56,12.70
2021,08,24,00,57,12.80
2021,08,24,00,58,12.80
2021,08,24,00,59,12.80
2021,08,24,01,00,12.80
2021,08,24,01,01,12.80
2021,08,24,01,02,12.80
2021,08,24,01,03,12.80
2021,08,24,01,04,12.80
2021,08,24,01,05,12.80
2021,08,24,01,06,12.80
2021,08,24,01,07,12.80
2021,08,24,01,08,12.80
2021,08,24,01,09,12.80
2021,08,24,01,10,12.80
2021,08,24,01,11,12.80
2021,08,24,01,12,12.70
2021,08,24,01,13,12.70
2021,08,24,01,14,12.70
2021,08,24,01,15,12.70
2021,08,24,01,16,12.60
2021,08,24,01,17,12.60
2021,08,24,01,18,12.60
2021,08,24,01,19,12.60
2021,08,24,01,20,12.50
2021,08,24,01,21,12.50
2021,08,24,01,22,12.50
2021,08,24,01,23,12.40
2021,08,24,01,24,12.40
2021,08,24,01,25,12.40
2021,08,24,01,26,12.40
2021,08,24,01,27,12.40
2021,08,24,01,28,12.40
2021,08,24,01,29,12.30
2021,08,24,01,30,12.30
2021,08,24,01,31,12.30
2021,08,24,01,32,12.30
2021,08,24,01,33,12.30
2021,08,24,01,34,12.20
2021,08,24,01,35,12.20
2021,08,24,01,36,12.20
2021,08,24,01,37,12.20
2021,08,24,01,38,12.20
2021,08,24,01,39,12.20
2021,08,24,01,40,12.20
2021,08,24,01,41,12.20
2021,08,24,01,42,12.20
2021,08,24,01,43,12.20
2021,08,24,01,44,12.20
2021,08,24,01,45,12.20
2021,08,24,01,46,12.20
2021,08,24,01,47,12.20
2021,08,24,01,48,12.20
2021,08,24,01,49,12.20
2021,08,24,01,50,12.10
2021,08,24,01,51,12.10
2021,08,24,01,52,12.10
2021,08,24,01,53,12.10
2021,08,24,01,54,12.10
2021,08,24,01,55,12.10
2021,08,24,01,56,12.10
2021,08,24,01,57,12.10
2021,08,24,01,58,12.10
2021,08,24,01,59,12.10
2021,08,24,02,00,12.10
2021,08,24,02,01,12.20
2021,08,24,02,02,12.20
2021,08,24,02,03,12.20
2021,08,24,02,04,12.20
2021,08,24,02,05,12.20
2021,08,24,02,06,12.20
2021,08,24,02,07,12.20
2021,08,24,02,08,12.20
2021,08,24,02,09,12.10
2021,08,24,02,10,12.10
2021,08,24,02,11,12.10
2021,08,24,02,12,12.10
2021,08,24,02,13,12.10
2021,08,24,02,14,12.10
2021,08,24,02,15,12.10
2021,08,24,02,16,12.10
2021,08,24,02,17,12.00
2021,08,24,02,18,12.00
2021,08,24,02,19,12.00
2021,08,24,02,20,11.90
2021,08,24,02,21,11.90
2021,08,24,02,22,11.90
2021,08,24,02,23,11.90
2021,08,24,02,24,11.90
2021,08,24,02,25,11.90
2021,08,24,02,26,11.90
2021,08,24,02,27,11.90
2021,08,24,02,28,11.90
2021,08,24,02,29,11.90
2021,08,24,02,30,11.90
2021,08,24,02,31,11.90
2021,08,24,02,32,11.90
2021,08,24,02,33,11.90
2021,08,24,02,34,11.90
2021,08,24,02,35,11.80
2021,08,24,02,36,11.80
2021,08,24,02,37,11.80
2021,08,24,02,38,11.80
2021,08,24,02,39,11.80
2021,08,24,02,40,11.80
2021,08,24,02,41,11.80
2021,08,24,02,42,11.80
2021,08,24,02,43,11.80
2021,08,24,02,44,11.80
2021,08,24,02,45,11.80
2021,08,24,02,46,11.80
2021,08,24,02,47,11.80
2021,08,24,02,48,11.80
2021,08,24,02,49,11.80
2021,08,24,02,50,11.80
2021,08,24,02,51,11.80
2021,08,24,02,52,11.80
2021,08,24,02,53,11.80
2021,08,24,02,54,11.80
2021,08,24,02,55,11.80
2021,08,24,02,56,11.80
2021,08,24,02,57,11.80
2021,08,24,02,58,11.70
2021,08,24,02,59,11.70
2021,08,24,03,00,11.70
2021,08,24,03,01,11.70
2021,08,24,03,02,11.70
2021,08,24,03,03,11.70
2021,08,24,03,04,11.70
2021,08,24,03,05,11.70
2021,08,24,03,06,11.70
2021,08,24,03,07,11.70
2021,08,24,03,08,11.70
2021,08,24,03,09,11.70
2021,08,24,03,10,11.70
2021,08,24,03,11,11.70
2021,08,24,03,12,11.60
2021,08,24,03,13,11.60
2021,08,24,03,14,11.60
2021,08,24,03,15,11.60
2021,08,24,03,16,11.60
2021,08,24,03,17,11.60
2021,08,24,03,18,11.50
2021,08,24,03,19,11.50
2021,08,24,03,20,11.50
2021,08,24,03,21,11.40
2021,08,24,03,22,11.40
2021,08,24,03,23,11.40
2021,08,24,03,24,11.40
2021,08,24,03,25,11.30
2021,08,24,03,26,11.30
2021,08,24,03,27,11.30
2021,08,24,03,28,11.30
2021,08,24,03,29,11.30
2021,08,24,03,30,11.30
2021,08,24,03,31,11.20
2021,08,24,03,32,11.20
2021,08,24,03,33,11.20
2021,08,24,03,34,11.20
2021,08,24,03,35,11.20
2021,08,24,03,36,11.20
2021,08,24,03,37,11.20
2021,08,24,03,38,11.20
2021,08,24,03,39,11.10
2021,08,24,03,40,11.10
2021,08,24,03,41,11.10
2021,08,24,03,42,11.10
2021,08,24,03,43,11.10
2021,08,24,03,44,11.00
2021,08,24,03,45,11.00
2021,08,24,03,46,11.00
2021,08,24,03,47,11.00
2021,08,24,03,48,11.00
2021,08,24,03,49,11.00
2021,08,24,03,50,11.00
2021,08,24,03,51,11.00
2021,08,24,03,52,11.00
2021,08,24,03,53,11.00
2021,08,24,03,54,11.00
2021,08,24,03,55,11.00
2021,08,24,03,56,11.00
2021,08,24,03,57,11.00
2021,08,24,03,58,11.00
2021,08,24,03,59,10.90
2021,08,24,04,00,10.90
2021,08,24,04,01,10.90
2021,08,24,04,02,10.90
2021,08,24,04,03,10.90
2021,08,24,04,04,10.90
2021,08,24,04,05,10.90
2021,08,24,04,06,10.90
2021,08,24,04,07,10.80
2021,08,24,04,08,10.80
2021,08,24,04,09,10.80
2021,08,24,04,10,10.80
2021,08,24,04,11,10.80
2021,08,24,04,12,10.80
2021,08,24,04,13,10.80
2021,08,24,04,14,10.70
2021,08,24,04,15,10.70
2021,08,24,04,16,10.70
2021,08,24,04,17,10.70
2021,08,24,04,18,10.70
2021,08,24,04,19,10.70
2021,08,24,04,20,10.70
2021,08,24,04,21,10.70
2021,08,24,04,22,10.70
2021,08,24,04,23,10.70
2021,08,24,04,24,10.70
2021,08,24,04,25,10.70
2021,08,24,04,26,10.70
2021,08,24,04,27,10.70
2021,08,24,04,28,10.70
2021,08,24,04,29,10.70
2021,08,24,04,30,10.70
2021,08,24,04,31,10.70
2021,08,24,04,32,10.70
2021,08,24,04,33,10.70
2021,08,24,04,34,10.60
2021,08,24,04,35,10.60
2021,08,24,04,36,10.60
2021,08,24,04,37,10.60
2021,08,24,04,38,10.60
2021,08,24,04,39,10.60
2021,08,24,04,40,10.60
2021,08,24,04,41,10.60
2021,08,24,04,42,10.70
2021,08,24,04,43,10.70
2021,08,24,04,44,10.80
2021,08,24,04,45,10.90
2021,08,24,04,46,11.00
2021,08,24,04,47,11.10
2021,08,24,04,48,11.10
2021,08,24,04,49,11.20
2021,08,24,04,50,11.20
2021,08,24,04,51,11.20
2021,08,24,04,52,11.30
2021,08,24,04,53,11.30
2021,08,24,04,54,11.30
2021,08,24,04,55,11.30
2021,08,24,04,56,11.30
2021,08,24,04,57,11.30
2021,08,24,04,58,11.30
2021,08,24,04,59,11.30
2021,08,24,05,00,11.30
2021,08,24,05,01,11.30
2021,08,24,05,02,11.30
2021,08,24,05,03,11.40
2021,08,24,05,04,11.40
2021,08,24,05,05,11.40
2021,08,24,05,06,11.40
2021,08,24,05,07,11.40
2021,08,24,05,08,11.40
2021,08,24,05,09,11.40
2021,08,24,05,10,11.40
2021,08,24,05,11,11.40
2021,08,24,05,12,11.40
2021,08,24,05,13,11.40
2021,08,24,05,14,11.40
2021,08,24,05,15,11.40
2021,08,24,05,16,11.50
2021,08,24,05,17,11.50
2021,08,24,05,18,11.50
2021,08,24,05,19,11.50
2021,08,24,05,20,11.50
2021,08,24,05,21,11.40
2021,08,24,05,22,11.40
2021,08,24,05,23,11.40
2021,08,24,05,24,11.40
2021,08,24,05,25,11.40
2021,08,24,05,26,11.40
2021,08,24,05,27,11.40
2021,08,24,05,28,11.30
2021,08,24,05,29,11.30
2021,08,24,05,30,11.30
2021,08,24,05,31,11.30
2021,08,24,05,32,11.30
2021,08,24,05,33,11.30
2021,08,24,05,34,11.30
2021,08,24,05,35,11.30
2021,08,24,05,36,11.30
2021,08,24,05,37,11.30
2021,08,24,05,38,11.30
2021,08,24,05,39,11.20
2021,08,24,05,40,11.20
2021,08,24,05,41,11.20
2021,08,24,05,42,11.20
2021,08,24,05,43,11.20
2021,08,24,05,44,11.20
2021,08,24,05,45,11.20
2021,08,24,05,46,11.20
2021,08,24,05,47,11.10
2021,08,24,05,48,11.10
2021,08,24,05,49,11.10
2021,08,24,05,50,11.10
2021,08,24,05,51,11.10
2021,08,24,05,52,11.10
2021,08,24,05,53,11.10
2021,08,24,05,54,11.10
2021,08,24,05,55,11.10
2021,08,24,05,56,11.10
2021,08,24,05,57,11.10
2021,08,24,05,58,11.10
2021,08,24,05,59,11.10
2021,08,24,06,00,11.10
2021,08,24,06,01,11.10
2021,08,24,06,02,11.10
2021,08,24,06,03,11.00
2021,08,24,06,04,11.00
2021,08,24,06,05,11.00
2021,08,24,06,06,11.00
2021,08,24,06,07,11.00
2021,08,24,06,08,11.00
2021,08,24,06,09,11.00
2021,08,24,06,10,11.00
2021,08,24,06,11,11.00
2021,08,24,06,12,10.90
2021,08,24,06,13,10.90
2021,08,24,06,14,10.90
2021,08,24,06,15,10.90
2021,08,24,06,16,10.90
2021,08,24,06,17,10.80
2021,08,24,06,18,10.80
2021,08,24,06,19,10.80
2021,08,24,06,20,10.80
2021,08,24,06,21,10.80
2021,08,24,06,22,10.80
2021,08,24,06,23,10.80
2021,08,24,06,24,10.80
2021,08,24,06,25,10.80
2021,08,24,06,26,10.80
2021,08,24,06,27,10.80
2021,08,24,06,28,10.80
2021,08,24,06,29,10.80
2021,08,24,06,30,10.80
2021,08,24,06,31,10.80
2021,08,24,06,32,10.80
2021,08,24,06,33,10.80
2021,08,24,06,34,10.80
2021,08,24,06,35,10.80
2021,08,24,06,36,10.80
2021,08,24,06,37,10.80
2021,08,24,06,38,10.70
2021,08,24,06,39,10.70
2021,08,24,06,40,10.70
2021,08,24,06,41,10.70
2021,08,24,06,42,10.70
2021,08,24,06,43,10.80
2021,08,24,06,44,10.70
2021,08,24,06,45,10.70
2021,08,24,06,46,10.70
2021,08,24,06,47,10.70
2021,08,24,06,48,10.70
2021,08,24,06,49,10.70
2021,08,24,06,50,10.70
2021,08,24,06,51,10.70
2021,08,24,06,52,10.70
2021,08,24,06,53,10.70
2021,08,24,06,54,10.70
2021,08,24,06,55,10.70
2021,08,24,06,56,10.70
2021,08,24,06,57,10.70
2021,08,24,06,58,10.70
2021,08,24,06,59,10.70
2021,08,24,07,00,10.70
2021,08,24,07,01,10.70
2021,08,24,07,02,10.70
2021,08,24,07,03,10.70
2021,08,24,07,04,10.70
2021,08,24,07,05,10.70
2021,08,24,07,06,10.70
2021,08,24,07,07,10.80
2021,08,24,07,08,10.80
2021,08,24,07,09,10.80
2021,08,24,07,10,10.80
2021,08,24,07,11,10.80
2021,08,24,07,12,10.80
2021,08,24,07,13,10.80
2021,08,24,07,14,10.80
2021,08,24,07,15,10.80
2021,08,24,07,16,10.80
2021,08,24,07,17,10.80
2021,08,24,07,18,10.80
2021,08,24,07,19,10.90
2021,08,24,07,20,10.90
2021,08,24,07,21,10.80
2021,08,24,07,22,10.90
2021,08,24,07,23,10.90
2021,08,24,07,24,10.80
2021,08,24,07,25,10.80
2021,08,24,07,26,10.80
2021,08,24,07,27,10.80
2021,08,24,07,28,10.80
2021,08,24,07,29,10.80
2021,08,24,07,30,10.80
2021,08,24,07,31,10.80
2021,08,24,07,32,10.90
2021,08,24,07,33,10.90
2021,08,24,07,34,10.90
2021,08,24,07,35,10.90
2021,08,24,07,36,11.00
2021,08,24,07,37,11.00
2021,08,24,07,38,11.00
2021,08,24,07,39,11.00
2021,08,24,07,40,11.10
2021,08,24,07,41,11.10
2021,08,24,07,42,11.10
2021,08,24,07,43,11.10
2021,08,24,07,44,11.10
2021,08,24,07,45,11.20
2021,08,24,07,46,11.20
2021,08,24,07,47,11.20
2021,08,24,07,48,11.20
2021,08,24,07,49,11.20
2021,08,24,07,50,11.20
2021,08,24,07,51,11.30
2021,08,24,07,52,11.30
2021,08,24,07,53,11.30
2021,08,24,07,54,11.30
2021,08,24,07,55,11.40
2021,08,24,07,56,11.40
2021,08,24,07,57,11.40
2021,08,24,07,58,11.40
2021,08,24,07,59,11.50
2021,08,24,08,00,11.50
2021,08,24,08,01,11.60
2021,08,24,08,02,11.60
2021,08,24,08,03,11.70
2021,08,24,08,04,11.70
2021,08,24,08,05,11.70
2021,08,24,08,06,11.70
2021,08,24,08,07,11.80
2021,08,24,08,08,11.80
2021,08,24,08,09,11.80
2021,08,24,08,10,11.80
2021,08,24,08,11,11.90
2021,08,24,08,12,11.90
2021,08,24,08,13,12.00
2021,08,24,08,14,12.10
2021,08,24,08,15,12.10
2021,08,24,08,16,12.20
2021,08,24,08,17,12.20
2021,08,24,08,18,12.20
2021,08,24,08,19,12.30
2021,08,24,08,20,12.30
2021,08,24,08,21,12.30
2021,08,24,08,22,12.40
2021,08,24,08,23,12.40
2021,08,24,08,24,12.40
2021,08,24,08,25,12.50
2021,08,24,08,26,12.60
2021,08,24,08,27,12.60
2021,08,24,08,28,12.60
2021,08,24,08,29,12.70
2021,08,24,08,30,12.80
2021,08,24,08,31,12.80
2021,08,24,08,32,12.90
2021,08,24,08,33,12.90
2021,08,24,08,34,13.00
2021,08,24,08,35,13.00
2021,08,24,08,36,13.10
2021,08,24,08,37,13.10
2021,08,24,08,38,13.20
2021,08,24,08,39,13.20
2021,08,24,08,40,13.30
2021,08,24,08,41,13.30
2021,08,24,08,42,13.30
2021,08,24,08,43,13.40
2021,08,24,08,44,13.40
2021,08,24,08,45,13.50
2021,08,24,08,46,13.50
2021,08,24,08,47,13.60
2021,08,24,08,48,13.70
2021,08,24,08,49,13.70
2021,08,24,08,50,13.80
2021,08,24,08,51,13.80
2021,08,24,08,52,13.90
2021,08,24,08,53,13.90
2021,08,24,08,54,13.90
2021,08,24,08,55,13.90
2021,08,24,08,56,14.00
2021,08,24,08,57,14.10
2021,08,24,08,58,14.10
2021,08,24,08,59,14.10
2021,08,24,09,00,14.20
2021,08,24,09,01,14.20
2021,08,24,09,02,14.20
2021,08,24,09,03,14.30
2021,08,24,09,04,14.30
2021,08,24,09,05,14.30
2021,08,24,09,06,14.30
2021,08,24,09,07,14.40
2021,08,24,09,08,14.40
2021,08,24,09,09,14.50
2021,08,24,09,10,14.60
2021,08,24,09,11,14.60
2021,08,24,09,12,14.70
2021,08,24,09,13,14.80
2021,08,24,09,14,14.90
2021,08,24,09,15,14.90
2021,08,24,09,16,15.00
2021,08,24,09,17,15.00
2021,08,24,09,18,15.10
2021,08,24,09,19,15.10
2021,08,24,09,20,15.20
2021,08,24,09,21,15.20
2021,08,24,09,22,15.20
2021,08,24,09,23,15.30
2021,08,24,09,24,15.30
2021,08,24,09,25,15.30
2021,08,24,09,26,15.30
2021,08,24,09,27,15.40
2021,08,24,09,28,15.40
2021,08,24,09,29,15.40
2021,08,24,09,30,15.50
2021,08,24,09,31,15.50
2021,08,24,09,32,15.60
2021,08,24,09,33,15.60
2021,08,24,09,34,15.60
2021,08,24,09,35,15.70
2021,08,24,09,36,15.70
2021,08,24,09,37,15.70
2021,08,24,09,38,15.70
2021,08,24,09,39,15.70
2021,08,24,09,40,15.70
2021,08,24,09,41,15.70
2021,08,24,09,42,15.70
2021,08,24,09,43,15.80
2021,08,24,09,44,15.80
2021,08,24,09,45,15.80
2021,08,24,09,46,15.80
2021,08,24,09,47,15.80
2021,08,24,09,48,15.80
2021,08,24,09,49,15.90
2021,08,24,09,50,15.90
2021,08,24,09,51,15.90
2021,08,24,09,52,15.90
2021,08,24,09,53,15.90
2021,08,24,09,54,15.90
2021,08,24,09,55,16.00
2021,08,24,09,56,16.00
2021,08,24,09,57,16.00
2021,08,24,09,58,16.00
2021,08,24,09,59,16.00
2021,08,24,10,00,16.10
2021,08,24,10,01,16.10
2021,08,24,10,02,16.20
2021,08,24,10,03,16.20
2021,08,24,10,04,16.30
2021,08,24,10,05,16.30
2021,08,24,10,06,16.30
2021,08,24,10,07,16.30
2021,08,24,10,08,16.40
2021,08,24,10,09,16.40
2021,08,24,10,10,16.40
2021,08,24,10,11,16.50
2021,08,24,10,12,16.60
2021,08,24,10,13,16.70
2021,08,24,10,14,16.80
2021,08,24,10,15,16.80
2021,08,24,10,16,16.90
2021,08,24,10,17,16.90
2021,08,24,10,18,17.00
2021,08,24,10,19,17.00
2021,08,24,10,20,17.10
2021,08,24,10,21,17.10
2021,08,24,10,22,17.10
2021,08,24,10,23,17.10
2021,08,24,10,24,17.20
2021,08,24,10,25,17.20
2021,08,24,10,26,17.20
2021,08,24,10,27,17.30
2021,08,24,10,28,17.30
2021,08,24,10,29,17.30
2021,08,24,10,30,17.30
2021,08,24,10,31,17.30
2021,08,24,10,32,17.40
2021,08,24,10,33,17.40
2021,08,24,10,34,17.40
2021,08,24,10,35,17.40
2021,08,24,10,36,17.50
2021,08,24,10,37,17.50
2021,08,24,10,38,17.50
2021,08,24,10,39,17.50
2021,08,24,10,40,17.60
2021,08,24,10,41,17.60
2021,08,24,10,42,17.70
2021,08,24,10,43,17.70
2021,08,24,10,44,17.70
2021,08,24,10,45,17.70
2021,08,24,10,46,17.70
2021,08,24,10,47,17.70
2021,08,24,10,48,17.70
2021,08,24,10,49,17.80
2021,08,24,10,50,17.80
2021,08,24,10,51,17.90
2021,08,24,10,52,18.00
2021,08,24,10,53,18.00
2021,08,24,10,54,18.10
2021,08,24,10,55,18.10
2021,08,24,10,56,18.20
2021,08,24,10,57,18.30
2021,08,24,10,58,18.40
2021,08,24,10,59,18.40
2021,08,24,11,00,18.50
2021,08,24,11,01,18.50
2021,08,24,11,02,18.40
2021,08,24,11,03,18.50
2021,08,24,11,04,18.50
2021,08,24,11,05,18.50
2021,08,24,11,06,18.50
2021,08,24,11,07,18.50
2021,08,24,11,08,18.40
2021,08,24,11,09,18.40
2021,08,24,11,10,18.30
2021,08,24,11,11,18.30
2021,08,24,11,12,18.30
2021,08,24,11,13,18.30
2021,08,24,11,14,18.30
2021,08,24,11,15,18.30
2021,08,24,11,16,18.30
2021,08,24,11,17,18.30
2021,08,24,11,18,18.30
2021,08,24,11,19,18.30
2021,08,24,11,20,18.30
2021,08,24,11,21,18.40
2021,08,24,11,22,18.40
2021,08,24,11,23,18.40
2021,08,24,11,24,18.40
2021,08,24,11,25,18.40
2021,08,24,11,26,18.30
2021,08,24,11,27,18.30
2021,08,24,11,28,18.30
2021,08,24,11,29,18.30
2021,08,24,11,30,18.30
2021,08,24,11,31,18.30
2021,08,24,11,32,18.30
2021,08,24,11,33,18.30
2021,08,24,11,34,18.30
2021,08,24,11,35,18.30
2021,08,24,11,36,18.40
2021,08,24,11,37,18.40
2021,08,24,11,38,18.40
2021,08,24,11,39,18.50
2021,08,24,11,40,18.50
2021,08,24,11,41,18.50
2021,08,24,11,42,18.40
2021,08,24,11,43,18.40
2021,08,24,11,44,18.50
2021,08,24,11,45,18.40
2021,08,24,11,46,18.50
2021,08,24,11,47,18.50
2021,08,24,11,48,18.60
2021,08,24,11,49,18.60
2021,08,24,11,50,18.60
2021,08,24,11,51,18.60
2021,08,24,11,52,18.60
2021,08,24,11,53,18.60
2021,08,24,11,54,18.60
2021,08,24,11,55,18.50
2021,08,24,11,56,18.50
2021,08,24,11,57,18.60
2021,08,24,11,58,18.70
2021,08,24,11,59,18.80
2021,08,24,12,00,18.90
2021,08,24,12,01,18.90
2021,08,24,12,02,19.00
2021,08,24,12,03,19.00
2021,08,24,12,04,19.10
2021,08,24,12,05,19.20
2021,08,24,12,06,19.30
2021,08,24,12,07,19.30
2021,08,24,12,08,19.40
2021,08,24,12,09,19.50
2021,08,24,12,10,19.50
2021,08,24,12,11,19.50
2021,08,24,12,12,19.50
2021,08,24,12,13,19.50
2021,08,24,12,14,19.50
2021,08,24,12,15,19.50
2021,08,24,12,16,19.40
2021,08,24,12,17,19.50
2021,08,24,12,18,19.60
2021,08,24,12,19,19.60
2021,08,24,12,20,19.70
2021,08,24,12,21,19.80
2021,08,24,12,22,19.90
2021,08,24,12,23,20.00
2021,08,24,12,24,20.00
2021,08,24,12,25,20.10
2021,08,24,12,26,20.20
2021,08,24,12,27,20.30
2021,08,24,12,28,20.30
2021,08,24,12,29,20.40
2021,08,24,12,30,20.40
2021,08,24,12,31,20.50
2021,08,24,12,32,20.60
2021,08,24,12,33,20.60
2021,08,24,12,34,20.70
2021,08,24,12,35,20.70
2021,08,24,12,36,20.70
2021,08,24,12,37,20.70
2021,08,24,12,38,20.80
2021,08,24,12,39,20.90
2021,08,24,12,40,20.90
2021,08,24,12,41,20.90
2021,08,24,12,42,20.80
2021,08,24,12,43,20.80
2021,08,24,12,44,20.70
2021,08,24,12,45,20.60
2021,08,24,12,46,20.50
2021,08,24,12,47,20.50
2021,08,24,12,48,20.50
2021,08,24,12,49,20.60
2021,08,24,12,50,20.70
2021,08,24,12,51,20.70
2021,08,24,12,52,20.80
2021,08,24,12,53,20.80
2021,08,24,12,54,20.90
2021,08,24,12,55,21.00
2021,08,24,12,56,21.10
2021,08,24,12,57,21.10
2021,08,24,12,58,21.20
2021,08,24,12,59,21.30
2021,08,24,13,00,21.40
2021,08,24,13,01,21.40
2021,08,24,13,02,21.40
2021,08,24,13,03,21.40
2021,08,24,13,04,21.30
2021,08,24,13,05,21.30
2021,08,24,13,06,21.30
2021,08,24,13,07,21.20
2021,08,24,13,08,21.20
2021,08,24,13,09,21.20
2021,08,24,13,10,21.10
2021,08,24,13,11,21.10
2021,08,24,13,12,21.20
2021,08,24,13,13,21.20
2021,08,24,13,14,21.30
2021,08,24,13,15,21.30
2021,08,24,13,16,21.30
2021,08,24,13,17,21.30
2021,08,24,13,18,21.30
2021,08,24,13,19,21.30
2021,08,24,13,20,21.30
2021,08,24,13,21,21.40
2021,08,24,13,22,21.50
2021,08,24,13,23,21.50
2021,08,24,13,24,21.60
2021,08,24,13,25,21.60
2021,08,24,13,26,21.60
2021,08,24,13,27,21.70
2021,08,24,13,28,21.70
2021,08,24,13,29,21.70
2021,08,24,13,30,21.80
2021,08,24,13,31,21.80
2021,08,24,13,32,21.80
2021,08,24,13,33,21.80
2021,08,24,13,34,21.90
2021,08,24,13,35,21.90
2021,08,24,13,36,22.00
2021,08,24,13,37,22.10
2021,08,24,13,38,22.20
2021,08,24,13,39,22.30
2021,08,24,13,40,22.40
2021,08,24,13,41,22.50
2021,08,24,13,42,22.60
2021,08,24,13,43,22.70
2021,08,24,13,44,22.80
2021,08,24,13,45,22.80
2021,08,24,13,46,22.90
2021,08,24,13,47,22.90
2021,08,24,13,48,22.90
2021,08,24,13,49,22.90
2021,08,24,13,50,23.00
2021,08,24,13,51,22.90
2021,08,24,13,52,22.90
2021,08,24,13,53,22.70
2021,08,24,13,54,22.60
2021,08,24,13,55,22.50
2021,08,24,13,56,22.50
2021,08,24,13,57,22.50
2021,08,24,13,58,22.50
2021,08,24,13,59,22.60
2021,08,24,14,00,22.70
2021,08,24,14,01,22.80
2021,08,24,14,02,22.90
2021,08,24,14,03,23.00
2021,08,24,14,04,23.10
2021,08,24,14,05,23.20
2021,08,24,14,06,23.30
2021,08,24,14,07,23.40
2021,08,24,14,08,23.50
2021,08,24,14,09,23.50
2021,08,24,14,10,23.60
2021,08,24,14,11,23.70
2021,08,24,14,12,23.80
2021,08,24,14,13,23.70
2021,08,24,14,14,23.60
2021,08,24,14,15,23.40
2021,08,24,14,16,23.30
2021,08,24,14,17,23.20
2021,08,24,14,18,23.10
2021,08,24,14,19,23.10
2021,08,24,14,20,23.10
2021,08,24,14,21,23.10
2021,08,24,14,22,23.10
2021,08,24,14,23,23.10
2021,08,24,14,24,23.10
2021,08,24,14,25,23.20
2021,08,24,14,26,23.20
2021,08,24,14,27,23.20
2021,08,24,14,28,23.20
2021,08,24,14,29,23.20
2021,08,24,14,30,23.20
2021,08,24,14,31,23.20
2021,08,24,14,32,23.20
2021,08,24,14,33,23.20
2021,08,24,14,34,23.20
2021,08,24,14,35,23.10
2021,08,24,14,36,23.10
2021,08,24,14,37,23.00
2021,08,24,14,38,22.90
2021,08,24,14,39,22.90
2021,08,24,14,40,22.80
2021,08,24,14,41,22.80
2021,08,24,14,42,22.80
2021,08,24,14,43,22.90
2021,08,24,14,44,23.00
2021,08,24,14,45,23.10
2021,08,24,14,46,23.10
2021,08,24,14,47,23.10
2021,08,24,14,48,23.20
2021,08,24,14,49,23.20
2021,08,24,14,50,23.20
2021,08,24,14,51,23.30
2021,08,24,14,52,23.40
2021,08,24,14,53,23.50
2021,08,24,14,54,23.50
2021,08,24,14,55,23.60
2021,08,24,14,56,23.60
2021,08,24,14,57,23.60
2021,08,24,14,58,23.60
2021,08,24,14,59,23.60
2021,08,24,15,00,23.60
2021,08,24,15,01,23.50
2021,08,24,15,02,23.40
2021,08,24,15,03,23.20
2021,08,24,15,04,23.10
2021,08,24,15,05,22.90
2021,08,24,15,06,22.90
2021,08,24,15,07,22.90
2021,08,24,15,08,22.90
2021,08,24,15,09,22.90
2021,08,24,15,10,22.90
2021,08,24,15,11,22.90
2021,08,24,15,12,22.90
2021,08,24,15,13,22.90
2021,08,24,15,14,22.90
2021,08,24,15,15,22.80
2021,08,24,15,16,22.80
2021,08,24,15,17,22.70
2021,08,24,15,18,22.60
2021,08,24,15,19,22.70
2021,08,24,15,20,22.70
2021,08,24,15,21,22.70
2021,08,24,15,22,22.70
2021,08,24,15,23,22.60
2021,08,24,15,24,22.50
2021,08,24,15,25,22.40
2021,08,24,15,26,22.40
2021,08,24,15,27,22.30
2021,08,24,15,28,22.20
2021,08,24,15,29,22.10
2021,08,24,15,30,22.00
2021,08,24,15,31,21.90
2021,08,24,15,32,21.90
2021,08,24,15,33,21.90
2021,08,24,15,34,21.90
2021,08,24,15,35,22.00
2021,08,24,15,36,22.00
2021,08,24,15,37,22.00
2021,08,24,15,38,22.00
2021,08,24,15,39,22.10
2021,08,24,15,40,22.10
2021,08,24,15,41,22.10
2021,08,24,15,42,22.20
2021,08,24,15,43,22.20
2021,08,24,15,44,22.30
2021,08,24,15,45,22.30
2021,08,24,15,46,22.30
2021,08,24,15,47,22.40
2021,08,24,15,48,22.40
2021,08,24,15,49,22.50
2021,08,24,15,50,22.60
2021,08,24,15,51,22.60
2021,08,24,15,52,22.70
2021,08,24,15,53,22.70
2021,08,24,15,54,22.70
2021,08,24,15,55,22.60
2021,08,24,15,56,22.60
2021,08,24,15,57,22.70
2021,08,24,15,58,22.70
2021,08,24,15,59,22.70
2021,08,24,16,00,22.70
2021,08,24,16,01,22.70
2021,08,24,16,02,22.60
2021,08,24,16,03,22.60
2021,08,24,16,04,22.60
2021,08,24,16,05,22.60
2021,08,24,16,06,22.60
2021,08,24,16,07,22.70
2021,08,24,16,08,22.70
2021,08,24,16,09,22.70
2021,08,24,16,10,22.70
2021,08,24,16,11,22.80
2021,08,24,16,12,22.80
2021,08,24,16,13,22.80
2021,08,24,16,14,22.80
2021,08,24,16,15,22.80
2021,08,24,16,16,22.90
2021,08,24,16,17,23.00
2021,08,24,16,18,23.00
2021,08,24,16,19,23.00
2021,08,24,16,20,23.00
2021,08,24,16,21,23.00
2021,08,24,16,22,23.10
2021,08,24,16,23,23.20
2021,08,24,16,24,23.30
2021,08,24,16,25,23.30
2021,08,24,16,26,23.40
2021,08,24,16,27,23.40
2021,08,24,16,28,23.30
2021,08,24,16,29,23.30
2021,08,24,16,30,23.30
2021,08,24,16,31,23.30
2021,08,24,16,32,23.30
2021,08,24,16,33,23.20
2021,08,24,16,34,23.30
2021,08,24,16,35,23.30
2021,08,24,16,36,23.30
2021,08,24,16,37,23.40
2021,08,24,16,38,23.40
2021,08,24,16,39,23.40
2021,08,24,16,40,23.40
2021,08,24,16,41,23.40
2021,08,24,16,42,23.50
2021,08,24,16,43,23.40
2021,08,24,16,44,23.50
2021,08,24,16,45,23.50
2021,08,24,16,46,23.50
2021,08,24,16,47,23.60
2021,08,24,16,48,23.60
2021,08,24,16,49,23.60
2021,08,24,16,50,23.70
2021,08,24,16,51,23.70
2021,08,24,16,52,23.70
2021,08,24,16,53,23.70
2021,08,24,16,54,23.70
2021,08,24,16,55,23.70
2021,08,24,16,56,23.70
2021,08,24,16,57,23.70
2021,08,24,16,58,23.70
2021,08,24,16,59,23.70
2021,08,24,17,00,23.70
2021,08,24,17,01,23.70
2021,08,24,17,02,23.70
2021,08,24,17,03,23.70
2021,08,24,17,04,23.80
2021,08,24,17,05,23.80
2021,08,24,17,06,23.80
2021,08,24,17,07,23.70
2021,08,24,17,08,23.70
2021,08,24,17,09,23.60
2021,08,24,17,10,23.60
2021,08,24,17,11,23.60
2021,08,24,17,12,23.60
2021,08,24,17,13,23.50
2021,08,24,17,14,23.60
2021,08,24,17,15,23.60
2021,08,24,17,16,23.60
2021,08,24,17,17,23.60
2021,08,24,17,18,23.70
2021,08,24,17,19,23.70